Location: Greenwich
(51.4790°N, 0.0090°E)
Time: 23:57:02
(UTC+01:00)

S-56A Canister/Altair - Visible Passes

Search period start: 16 April 2024 00:00
Search period end: 26 April 2024 00:00
Orbit: 639 x 2488 km, 38.9° (Epoch: 16 April)

Date Brightness Start Highest point End Pass type
(mag) Time Alt. Az. Time Alt. Az. Time Alt. Az.
16 Apr 10.5 00:47:07 10° WSW 00:52:10 22° SW 00:52:10 22° SW visible
16 Apr 9.7 22:09:49 10° WSW 22:17:35 38° S 22:22:46 26° SE visible
17 Apr 10.3 00:13:34 10° WSW 00:20:06 25° SW 00:20:06 25° SW visible
17 Apr 9.6 21:36:40 10° WSW 21:43:55 37° S 21:50:42 20° SE visible
17 Apr 10.2 23:40:06 10° WSW 23:47:52 27° SSW 23:48:02 27° SSW visible
18 Apr 9.5 21:03:33 10° WSW 21:10:19 36° S 21:18:40 13° SE visible
18 Apr 10.1 23:06:44 10° WSW 23:14:09 28° SSW 23:16:00 26° S visible
19 Apr 9.5 20:30:30 10° WSW 20:36:47 34° S 20:45:43 10° ESE visible
19 Apr 10.0 22:33:26 10° WSW 22:40:28 28° SSW 22:43:59 24° S visible
20 Apr 10.8 00:39:23 10° WSW 00:41:19 12° SW 00:41:19 12° SW visible
20 Apr 9.9 22:00:11 10° WSW 22:06:50 28° SSW 22:11:59 19° SSE visible
21 Apr 10.7 00:05:28 10° WSW 00:09:20 15° SW 00:09:20 15° SW visible
21 Apr 9.8 21:27:00 10° WSW 21:33:15 28° SSW 21:40:02 14° SE visible
21 Apr 10.6 23:31:45 10° WSW 23:36:51 16° SSW 23:37:22 16° SSW visible
22 Apr 9.7 20:53:53 10° WSW 20:59:43 28° S 21:07:43 10° SE visible
22 Apr 10.5 22:58:11 10° WSW 23:03:15 16° SSW 23:05:27 15° SSW visible
23 Apr 10.4 22:24:43 10° WSW 22:29:40 17° SSW 22:33:33 14° S visible
24 Apr 10.3 21:51:22 10° WSW 21:56:08 18° SSW 22:01:42 11° SSE visible
25 Apr 10.2 21:18:05 10° WSW 21:22:38 18° SSW 21:28:17 10° SSE visible
